Naples, FL

11:44 PM EDT on March 26, 2017 (GMT -0400)
Naples Municipal

Weather History for KAPF - January, 2011

Change the Weather History Date:

Thursday, January 6, 2011

  Actual Average Record
Temperature  
Mean Temperature 66 °F 64 °F  
Max Temperature 73 °F 75 °F 85 °F (1950)
Min Temperature 59 °F 54 °F 35 °F (1999)
Degree Days  
Heating Degree Days 0 3  
Month to date heating degree days 0 18  
Since 1 July heating degree days 235 96  
Cooling Degree Days 1 3  
Month to date cooling degree days 25 18  
Year to date cooling degree days 25 18  
Growing Degree Days 15 (Base 50)    
Moisture  
Dew Point 64 °F    
Average Humidity 86    
Maximum Humidity 93    
Minimum Humidity 78    
Precipitation  
Precipitation 0.07 in 0.06 in 0.37 in (1970)
Month to date precipitation 0.07 0.33  
Year to date precipitation 0.07 0.33  
Snow  
Snow 0.00 in - - ()
Month to date snowfall 0.0  
Since 1 July snowfall 0.0  
Snow Depth 0.00 in    
Sea Level Pressure  
Sea Level Pressure 29.83 in    
Wind  
Wind Speed 11 mph (West)    
Max Wind Speed 16 mph    
Max Gust Speed 22 mph    
Visibility 8 miles    
Events Rain    
T = Trace of Precipitation, MM = Missing Value Source: NWS Daily Summary

Daily Weather History Graph

Daily Weather History Graph

Search for Another Location

Airport or City:

Trip Planner

Search our weather history database for the weather conditions in past years. The results will help you decide how hot, cold, wet, or windy it might be!

Date:

Astronomy

Jan. 06, 2011 Rise Set
Actual Time 7:15 AM EST 5:50 PM EST
Civil Twilight 6:50 AM EST 6:15 PM EST
Nautical Twilight 6:21 AM EST 6:44 PM EST
Astronomical Twilight 5:53 AM EST 7:12 PM EST
Moon 8:43 AM EST (1/6) 8:10 PM EST (1/6)
Length of Visible Light 11h 24m
Length of Day
10h 34m
Waxing Crescent, 5% of the Moon is Illuminated
Jan 6
Waxing Crescent
Jan 12
First Quarter
Jan 19
Full
Jan 26
Last Quarter
Feb 2
New

Hourly Weather History & Observations

Time (EST) Temp. Dew Point Humidity Pressure Visibility Wind Dir Wind Speed Gust Speed Precip Events Conditions
12:53 AM 68.0 °F 64.0 °F 87% 29.90 in 10.0 mi SW 13.8 mph - N/A   Partly Cloudy
1:53 AM 68.0 °F 64.0 °F 87% 29.90 in 10.0 mi SW 13.8 mph - N/A   Clear
2:53 AM 66.9 °F 64.0 °F 90% 29.88 in 9.0 mi SW 11.5 mph - N/A   Partly Cloudy
3:53 AM 66.9 °F 64.9 °F 93% 29.86 in 9.0 mi SW 11.5 mph - N/A   Clear
4:21 AM 66.2 °F 64.4 °F 94% 29.86 in 9.0 mi SW 10.4 mph - N/A   Mostly Cloudy
4:49 AM 66.2 °F 64.4 °F 94% 29.86 in 8.0 mi SW 10.4 mph - N/A   Scattered Clouds
4:53 AM 66.9 °F 64.0 °F 90% 29.86 in 8.0 mi SW 8.1 mph - N/A   Partly Cloudy
5:53 AM 66.0 °F 64.0 °F 93% 29.86 in 8.0 mi SW 9.2 mph - N/A   Partly Cloudy
6:53 AM 66.9 °F 64.9 °F 93% 29.86 in 7.0 mi SW 11.5 mph - N/A   Partly Cloudy
7:53 AM 68.0 °F 66.0 °F 93% 29.86 in 6.0 mi SW 12.7 mph - N/A   Clear
8:53 AM 70.0 °F 66.9 °F 90% 29.87 in 7.0 mi SW 13.8 mph - N/A   Clear
9:53 AM 71.1 °F 66.9 °F 87% 29.87 in 8.0 mi SW 11.5 mph - N/A   Clear
10:53 AM 71.1 °F 66.0 °F 84% 29.85 in 8.0 mi SW 13.8 mph - N/A   Partly Cloudy
11:53 AM 71.1 °F 66.0 °F 84% 29.83 in 8.0 mi SW 10.4 mph - N/A   Scattered Clouds
12:53 PM 69.1 °F 66.0 °F 90% 29.81 in 7.0 mi SW 10.4 mph - N/A   Mostly Cloudy
1:53 PM 69.1 °F 66.9 °F 93% 29.78 in 7.0 mi WSW 12.7 mph - 0.00 in Rain Light Rain
2:08 PM 66.2 °F 66.2 °F 100% 29.78 in 6.0 mi West 10.4 mph 18.4 mph 0.00 in Rain Light Rain
2:49 PM 64.4 °F - N/A% 29.76 in 1.8 mi WNW 6.9 mph - 0.06 in Rain Heavy Rain
2:53 PM 64.9 °F - N/A% 29.76 in 2.0 mi West 6.9 mph - 0.06 in Rain Heavy Rain
3:05 PM 64.4 °F - N/A% 29.76 in 8.0 mi WNW 8.1 mph - 0.01 in   Mostly Cloudy
3:48 PM 64.4 °F 62.6 °F 94% 29.77 in 3.0 mi NW 10.4 mph - 0.01 in Rain Light Rain
3:53 PM 64.9 °F 62.6 °F 92% 29.76 in 4.0 mi NW 9.2 mph - 0.01 in Rain Light Rain
4:14 PM 62.6 °F 62.6 °F 100% 29.77 in 7.0 mi NNW 6.9 mph - 0.00 in   Overcast
4:39 PM 62.6 °F 62.6 °F 100% 29.78 in 8.0 mi NW 6.9 mph - 0.00 in   Overcast
4:53 PM 63.0 °F 62.6 °F 99% 29.78 in 8.0 mi NW 6.9 mph - 0.00 in   Overcast
5:40 PM 60.8 °F 53.6 °F 77% 29.79 in 9.0 mi NW 8.1 mph - N/A   Overcast
5:53 PM 61.0 °F 53.6 °F 77% 29.79 in 9.0 mi NW 9.2 mph - N/A   Overcast
6:53 PM 60.1 °F - N/A% 29.81 in 9.0 mi NW 13.8 mph 19.6 mph N/A   Clear
7:53 PM 60.1 °F - N/A% 29.83 in 9.0 mi WNW 10.4 mph - N/A   Clear
8:53 PM 61.0 °F - N/A% 29.85 in 9.0 mi NW 8.1 mph - N/A   Clear
9:53 PM 60.1 °F - N/A% 29.85 in 9.0 mi NW 8.1 mph - N/A   Clear
10:53 PM 59.0 °F - N/A% 29.85 in 9.0 mi NW 6.9 mph - N/A   Clear
11:53 PM 59.0 °F - N/A% 29.87 in 10.0 mi WNW 11.5 mph 19.6 mph N/A   Clear